This is the latest recevied weather packets stored in our database for station/object WX9WTF. If no packets are shown the sender has not sent any weather packets the latest 10 day(s).
| Time | Temp. | Humidity | Pressure | Rain* | Wind** | Luminosity | Snow |
|---|---|---|---|---|---|---|---|
| 1778092152 | 13.89° C | 41% | 1019.8 hPa | 0 mm | - | 415 W/m² | - |
| 1778091849 | 13.89° C | 40% | 1019.7 hPa | 0 mm | - | 400 W/m² | - |
| 1778091546 | 13.89° C | 41% | 1019.8 hPa | 0 mm | - | 480 W/m² | - |
| 1778091244 | 13.89° C | 39% | 1019.8 hPa | 0 mm | - | 519 W/m² | - |
| 1778090941 | 13.33° C | 41% | 1019.9 hPa | 0 mm | - | 390 W/m² | - |
| 1778090637 | 13.33° C | 38% | 1019.9 hPa | 0 mm | - | 333 W/m² | - |
| 1778090334 | 12.78° C | 40% | 1020 hPa | 0 mm | - | 375 W/m² | - |
| 1778090030 | 12.78° C | 40% | 1020 hPa | 0 mm | - | 389 W/m² | - |
| 1778089727 | 12.78° C | 38% | 1020.2 hPa | 0 mm | - | 374 W/m² | - |
| 1778089425 | 12.78° C | 41% | 1020.3 hPa | 0 mm | - | 348 W/m² | - |
| 1778089122 | 12.78° C | 40% | 1020.1 hPa | 0 mm | - | 316 W/m² | - |
| 1778088819 | 12.78° C | 42% | 1020.2 hPa | 0 mm | - | 311 W/m² | - |
| 1778088516 | 13.33° C | 41% | 1020.3 hPa | 0 mm | - | 331 W/m² | - |
| 1778088212 | 13.33° C | 45% | 1020.4 hPa | 0 mm | - | 353 W/m² | - |
| 1778087910 | 13.33° C | 42% | 1020.1 hPa | 0 mm | - | 449 W/m² | - |
| 1778087607 | 12.78° C | 39% | 1020.2 hPa | 0 mm | - | 672 W/m² | - |
| 1778087305 | 13.33° C | 42% | 1020 hPa | 0 mm | - | 601 W/m² | - |
| 1778087000 | 13.33° C | 42% | 1020.1 hPa | 0 mm | - | 602 W/m² | - |
| 1778086700 | 12.78° C | 39% | 1020 hPa | 0 mm | - | 507 W/m² | - |
| 1778086397 | 13.33° C | 40% | 1020.1 hPa | 0 mm | - | 520 W/m² | - |
| 1778086088 | 13.33° C | 41% | 1019.9 hPa | 0 mm | - | 611 W/m² | - |
| 1778085784 | 13.33° C | 41% | 1020 hPa | 0 mm | - | 563 W/m² | - |
| 1778085481 | 13.89° C | 46% | 1020.1 hPa | 0 mm | - | 515 W/m² | - |
| 1778085176 | 13.33° C | 43% | 1019.9 hPa | 0 mm | - | 553 W/m² | - |
| 1778084872 | 13.89° C | 45% | 1019.8 hPa | 0 mm | - | 618 W/m² | - |
* Rain latest hour (hover to see other rain measurements)
** Current wind speed in m/s (hover to see current wind gust speed)